| time (UTC) | temp F | wind direction | speed knots | gust knots | rain 1hr in | rain 24hr in | rain mn in | humidity % | barometer mb |
| 20260905214515 | 51 | 0.0 | 2.6 | 0.00 | 0.11 | 0.00 | 94 | 1018.8 | |
| 20260905213014 | 51 | 0.0 | 1.7 | 0.00 | 0.11 | 0.00 | 95 | 1018.5 | |
| 20260905211508 | 50 | 0.9 | 1.7 | 0.00 | 0.11 | 0.00 | 95 | 1018.3 | |
| 20260905210005 | 50 | 0.0 | 2.6 | 0.00 | 0.11 | 0.00 | 94 | 1018.0 | |
| 20260905204504 | 50 | 0.0 | 3.5 | 0.00 | 0.11 | 0.00 | 95 | 1017.9 | |
| 20260905203005 | 50 | 0.0 | 2.6 | 0.00 | 0.11 | 0.00 | 94 | 1017.4 | |
| 20260905201501 | 50 | 1.7 | 3.5 | 0.00 | 0.11 | 0.00 | 94 | 1017.3 | |
| 20260905200105 | 50 | 0.0 | 3.5 | 0.00 | 0.11 | 0.00 | 94 | 1017.1 | |
| 20260905194558 | 50 | 0.0 | 3.5 | 0.00 | 0.11 | 0.00 | 94 | 1017.2 | |
| 20260905193055 | 50 | 0.9 | 3.5 | 0.00 | 0.11 | 0.00 | 94 | 1017.0 | |
| 20260905191554 | 51 | 0.9 | 3.5 | 0.00 | 0.11 | 0.00 | 94 | 1017.1 | |
| 20260905190051 | 51 | 0.0 | 1.7 | 0.00 | 0.11 | 0.00 | 94 | 1016.7 | |
| 20260905184550 | 51 | 0.0 | 3.5 | 0.00 | 0.13 | 0.00 | 95 | 1016.4 | |
| 20260905183047 | 51 | 0.0 | 2.6 | 0.00 | 0.13 | 0.00 | 95 | 1016.2 | |
| 20260905181545 | 51 | 0.0 | 3.5 | 0.00 | 0.13 | 0.00 | 95 | 1015.9 | |
| 20260905174540 | 51 | 1.7 | 5.2 | 0.00 | 0.14 | 0.00 | 94 | 1015.5 | |
| 20260905173139 | 51 | 1.7 | 4.3 | 0.00 | 0.14 | 0.00 | 93 | 1015.4 | |
| 20260905171548 | 51 | 1.7 | 6.1 | 0.00 | 0.14 | 0.00 | 93 | 1015.2 | |
| 20260905170033 | 52 | 0.9 | 5.2 | 0.00 | 0.14 | 0.00 | 93 | 1014.7 | |
| 20260905164534 | 52 | 0.0 | 3.5 | 0.00 | 0.17 | 0.00 | 92 | 1014.6 | |
| 20260905163034 | 52 | 1.7 | 7.8 | 0.00 | 0.17 | 0.00 | 92 | 1014.4 | |
| 20260905161528 | 52 | 0.9 | 4.3 | 0.00 | 0.17 | 0.00 | 92 | 1014.0 | |
| 20260905160025 | 52 | 1.7 | 4.3 | 0.00 | 0.17 | 0.00 | 92 | 1014.0 | |
| 20260905154520 | 51 | 1.7 | 5.2 | 0.00 | 0.17 | 0.00 | 92 | 1013.6 | |
| 20260905153021 | 51 | 2.6 | 5.2 | 0.00 | 0.17 | 0.00 | 92 | 1013.3 | |
| 20260905151516 | 51 | 1.7 | 7.8 | 0.00 | 0.17 | 0.00 | 92 | 1013.0 | |
| 20260905150013 | 51 | 1.7 | 7.8 | 0.00 | 0.17 | 0.00 | 93 | 1012.8 | |
| 20260905144511 | 51 | 1.7 | 6.1 | 0.00 | 0.22 | 0.00 | 92 | 1012.4 | |
| 20260905143008 | 51 | 1.7 | 8.7 | 0.00 | 0.22 | 0.00 | 91 | 1012.1 | |
| 20260905141507 | 52 | 1.7 | 5.2 | 0.00 | 0.22 | 0.00 | 90 | 1011.9 | |
| 20260905140104 | 52 | 0.9 | 4.3 | 0.00 | 0.22 | 0.00 | 90 | 1011.7 | |
| 20260905134606 | 52 | 0.9 | 5.2 | 0.00 | 0.42 | 0.22 | 90 | 1011.5 | |
| 20260905133057 | 52 | 0.0 | 5.2 | 0.00 | 0.42 | 0.22 | 91 | 1011.2 | |
| 20260905131555 | 52 | 0.9 | 5.2 | 0.00 | 0.42 | 0.22 | 91 | 1010.8 | |
| 20260905130051 | 52 | 2.6 | 7.0 | 0.00 | 0.42 | 0.22 | 91 | 1010.3 | |
| 20260905124548 | 52 | 1.7 | 8.7 | 0.00 | 0.43 | 0.22 | 90 | 1009.9 | |
| 20260905123045 | 52 | 3.5 | 7.8 | 0.00 | 0.43 | 0.22 | 91 | 1009.6 | |
| 20260905121546 | 52 | 2.6 | 7.8 | 0.00 | 0.43 | 0.22 | 91 | 1009.4 | |
| 20260905120050 | 52 | 2.6 | 8.7 | 0.00 | 0.43 | 0.22 | 90 | 1009.2 | |
| 20260905114547 | 52 | 2.6 | 12.2 | 0.00 | 0.43 | 0.22 | 89 | 1008.9 | |
| 20260905113042 | 52 | 2.6 | 12.2 | 0.00 | 0.43 | 0.22 | 89 | 1008.6 | |
| 20260905111642 | 52 | 3.5 | 9.6 | 0.00 | 0.43 | 0.22 | 89 | 1008.3 | |
| 20260905110051 | 51 | 3.5 | 8.7 | 0.00 | 0.43 | 0.22 | 89 | 1008.0 | |
| 20260905104604 | 51 | 3.5 | 11.3 | 0.00 | 0.44 | 0.22 | 89 | 1007.9 | |
| 20260905103042 | 51 | 2.6 | 7.8 | 0.00 | 0.44 | 0.22 | 89 | 1007.7 | |
| 20260905101548 | 52 | 3.5 | 11.3 | 0.00 | 0.44 | 0.22 | 88 | 1007.2 | |
| 20260905100043 | 52 | 5.2 | 8.7 | 0.00 | 0.44 | 0.22 | 87 | 1006.7 | |
| 20260905094631 | 52 | 4.3 | 9.6 | 0.00 | 0.45 | 0.22 | 87 | 1006.5 | |
| 20260905093039 | 52 | 2.6 | 8.7 | 0.00 | 0.45 | 0.22 | 88 | 1006.4 | |
| 20260905091541 | 51 | 3.5 | 7.0 | 0.00 | 0.45 | 0.22 | 87 | 1005.9 | |
| 20260905090038 | 51 | 1.7 | 7.8 | 0.00 | 0.45 | 0.22 | 87 | 1005.7 | |
| 20260905084551 | 52 | 3.5 | 7.8 | 0.00 | 0.45 | 0.22 | 87 | 1005.3 | |
| 20260905083036 | 52 | 2.6 | 10.4 | 0.00 | 0.45 | 0.22 | 89 | 1005.2 | |
| 20260905081540 | 51 | 4.3 | 13.0 | 0.00 | 0.45 | 0.22 | 94 | 1004.6 | |
| 20260905080037 | 51 | 4.3 | 12.2 | 0.00 | 0.45 | 0.22 | 95 | 1004.3 | |
| 20260905074535 | 51 | 3.5 | 8.7 | 0.00 | 0.45 | 0.22 | 95 | 1003.9 | |
| 20260905073034 | 51 | 5.2 | 9.6 | 0.00 | 0.45 | 0.22 | 95 | 1003.7 | |
| 20260905071535 | 51 | 4.3 | 11.3 | 0.01 | 0.45 | 0.22 | 96 | 1003.8 | |
| 20260905070134 | 51 | 4.3 | 10.4 | 0.02 | 0.45 | 0.22 | 96 | 1003.8 | |
| 20260905064532 | 50 | 3.5 | 7.0 | 0.06 | 0.45 | 0.22 | 95 | 1003.6 | |
| 20260905063031 | 51 | 2.6 | 6.1 | 0.06 | 0.45 | 0.22 | 95 | 1003.6 | |
| 20260905061551 | 51 | 2.6 | 8.7 | 0.06 | 0.44 | 0.21 | 94 | 1003.6 | |
| 20260905060048 | 51 | 7.0 | 19.1 | 0.04 | 0.43 | 0.20 | 91 | 1003.7 | |
| 20260905054534 | 54 | 7.0 | 15.6 | 0.02 | 0.39 | 0.16 | 90 | 1002.8 | |
| 20260905053024 | 55 | 5.2 | 10.4 | 0.02 | 0.39 | 0.16 | 88 | 1002.4 | |
| 20260905051533 | 56 | 2.6 | 8.7 | 0.02 | 0.39 | 0.16 | 90 | 1002.2 | |
| 20260905050022 | 55 | 4.3 | 9.6 | 0.02 | 0.39 | 0.16 | 89 | 1002.4 | |
| 20260905044522 | 58 | 3.5 | 7.8 | 0.01 | 0.37 | 0.14 | 77 | 1002.4 | |
| 20260905043022 | 61 | 4.3 | 7.8 | 0.00 | 0.36 | 0.13 | 68 | 1001.9 | |
| 20260905041519 | 63 | 4.3 | 13.0 | 0.00 | 0.36 | 0.13 | 64 | 1001.8 | |
| 20260905040021 | 62 | 5.2 | 18.2 | 0.00 | 0.36 | 0.13 | 62 | 1001.9 | |
| 20260905034520 | 63 | 6.1 | 18.2 | 0.00 | 0.36 | 0.13 | 61 | 1001.8 | |
| 20260905033014 | 63 | 6.1 | 13.9 | 0.00 | 0.36 | 0.13 | 63 | 1001.9 | |
| 20260905031517 | 62 | 7.8 | 14.8 | 0.00 | 0.36 | 0.13 | 63 | 1002.1 | |
| 20260905030011 | 62 | 8.7 | 15.6 | 0.00 | 0.36 | 0.13 | 64 | 1002.1 | |
| 20260905024617 | 61 | 7.8 | 14.8 | 0.00 | 0.36 | 0.13 | 64 | 1002.4 | |
| 20260905023017 | 62 | 8.7 | 20.9 | 0.00 | 0.36 | 0.13 | 64 | 1002.5 | |
| 20260905021508 | 62 | 7.0 | 20.0 | 0.00 | 0.36 | 0.13 | 68 | 1002.4 | |
| 20260905020006 | 62 | 7.8 | 16.5 | 0.02 | 0.36 | 0.13 | 70 | 1002.3 | |
| 20260905014507 | 60 | 4.3 | 11.3 | 0.02 | 0.36 | 0.13 | 76 | 1002.3 | |
| 20260905013006 | 57 | 5.2 | 15.6 | 0.02 | 0.36 | 0.13 | 82 | 1002.4 | |
| 20260905011504 | 53 | 4.3 | 16.5 | 0.02 | 0.36 | 0.13 | 86 | 1002.8 | |
| 20260905010002 | 59 | 6.1 | 17.4 | 0.00 | 0.35 | 0.12 | 69 | 1002.7 | |
| 20260905003058 | 63 | 7.8 | 13.0 | 0.00 | 0.35 | 0.12 | 76 | 1001.8 | |
| 20260905001557 | 61 | 7.0 | 13.9 | 0.00 | 0.35 | 0.12 | 79 | 1002.0 | |
| 20260905000052 | 61 | 8.7 | 15.6 | 0.00 | 0.35 | 0.12 | 80 | 1002.0 | |
| 20260904234550 | 61 | 7.0 | 15.6 | 0.00 | 0.35 | 0.12 | 82 | 1002.1 | |
| 20260904233048 | 60 | 7.8 | 14.8 | 0.01 | 0.35 | 0.12 | 84 | 1002.2 | |
| 20260904231545 | 59 | 7.0 | 14.8 | 0.01 | 0.35 | 0.12 | 88 | 1002.2 | |
| 20260904230058 | 58 | 7.0 | 16.5 | 0.01 | 0.35 | 0.12 | 93 | 1002.0 | |
| 20260904224541 | 57 | 5.2 | 12.2 | 0.01 | 0.35 | 0.12 | 95 | 1002.2 | |
| 20260904223053 | 56 | 5.2 | 13.0 | 0.00 | 0.34 | 0.11 | 96 | 1002.1 | |
| 20260904221534 | 56 | 3.5 | 7.8 | 0.00 | 0.34 | 0.11 | 97 | 1002.2 | |
| 20260904220040 | 56 | 0.9 | 7.0 | 0.00 | 0.34 | 0.11 | 97 | 1002.4 |